When you browse on this site, cookies collect data to enhance your experience and personalize the content and advertising you see.
Visit our Privacy Policy to learn more. By continuing to use the site, you agree to this use of cookies and data.

Stündliche Wetter Kaposvár

Heute, 10 Juli, Freitag

Zeit Temperatur Niederschläge Wind Luftdruck Luftfeuchtigkeit
00:00 +19°C° 0 mm 2 m/S 747 mmHg 78%
01:00 +19°C° 0 mm 2 m/S 747 mmHg 81%
02:00 +18°C° 0 mm 2 m/S 747 mmHg 82%
03:00 +18°C° 0 mm 2 m/S 747 mmHg 83%
04:00 +17°C° 0 mm 2 m/S 747 mmHg 84%
05:00 +19°C° 0 mm 2 m/S 747 mmHg 77%
06:00 +21°C° 0 mm 2 m/S 747 mmHg 71%
07:00 +24°C° 0 mm 2 m/S 747 mmHg 65%
08:00 +26°C° 0 mm 3 m/S 747 mmHg 58%
09:00 +28°C° 0 mm 3 m/S 747 mmHg 51%
10:00 +30°C° 0 mm 3 m/S 747 mmHg 44%
11:00 +32°C° 0 mm 4 m/S 747 mmHg 41%
12:00 +33°C° 0 mm 4 m/S 747 mmHg 39%
13:00 +34°C° 0 mm 4 m/S 746 mmHg 36%
14:00 +34°C° 0 mm 4 m/S 746 mmHg 37%
15:00 +34°C° 0 mm 4 m/S 746 mmHg 38%
16:00 +34°C° 0 mm 5 m/S 745 mmHg 39%
17:00 +32°C° 0 mm 4 m/S 745 mmHg 47%
18:00 +29°C° 0 mm 4 m/S 745 mmHg 55%
19:00 +27°C° 0 mm 3 m/S 745 mmHg 63%
20:00 +26°C° 0 mm 3 m/S 745 mmHg 65%
21:00 +25°C° 0 mm 3 m/S 745 mmHg 67%
22:00 +22°C° 0 mm 3 m/S 745 mmHg 70%
23:00 +22°C° 0 mm 3 m/S 745 mmHg 72%

Morgen, 11 Juli, Samstag

Zeit Temperatur Niederschläge Wind Luftdruck Luftfeuchtigkeit
00:00 +21°C° 0 mm 2 m/S 745 mmHg 74%
01:00 +21°C° 0 mm 2 m/S 745 mmHg 76%
02:00 +20°C° 0 mm 2 m/S 745 mmHg 79%
03:00 +20°C° 0 mm 1 m/S 745 mmHg 83%
04:00 +19°C° 0 mm 1 m/S 745 mmHg 86%
05:00 +21°C° 0 mm 1 m/S 745 mmHg 81%
06:00 +23°C° 0 mm 1 m/S 746 mmHg 75%
07:00 +24°C° 0 mm 1 m/S 746 mmHg 69%
08:00 +26°C° 0 mm 1 m/S 746 mmHg 64%
09:00 +28°C° 0 mm 1 m/S 746 mmHg 59%
10:00 +30°C° 0 mm 1 m/S 746 mmHg 53%
11:00 +31°C° 0 mm 2 m/S 746 mmHg 50%
12:00 +33°C° 0 mm 3 m/S 746 mmHg 47%
13:00 +33°C° 0 mm 4 m/S 746 mmHg 44%
14:00 +30°C° 0.3 mm 6 m/S 746 mmHg 53%
15:00 +27°C° 0.3 mm 7 m/S 746 mmHg 62%
16:00 +23°C° 0.3 mm 9 m/S 746 mmHg 71%
17:00 +21°C° 0.3 mm 8 m/S 747 mmHg 73%
18:00 +20°C° 0.3 mm 8 m/S 747 mmHg 75%
19:00 +17°C° 0.3 mm 8 m/S 747 mmHg 77%
20:00 +16°C° 0.5 mm 7 m/S 748 mmHg 79%
21:00 +16°C° 0.5 mm 6 m/S 749 mmHg 81%
22:00 +15°C° 0.5 mm 5 m/S 749 mmHg 83%
23:00 +15°C° 0.1 mm 5 m/S 750 mmHg 80%

übermorgen, 12 Juli, Sonntag

Zeit Temperatur Niederschläge Wind Luftdruck Luftfeuchtigkeit
00:00 +15°C° 0.1 mm 6 m/S 750 mmHg 78%
01:00 +15°C° 0.1 mm 6 m/S 750 mmHg 75%
02:00 +15°C° 0 mm 5 m/S 750 mmHg 71%
03:00 +15°C° 0 mm 5 m/S 750 mmHg 67%
04:00 +15°C° 0 mm 5 m/S 751 mmHg 63%
05:00 +15°C° 0 mm 6 m/S 751 mmHg 61%
06:00 +16°C° 0 mm 6 m/S 751 mmHg 59%
07:00 +16°C° 0 mm 6 m/S 751 mmHg 57%
08:00 +19°C° 0 mm 6 m/S 752 mmHg 52%
09:00 +20°C° 0 mm 6 m/S 752 mmHg 46%
10:00 +22°C° 0 mm 6 m/S 752 mmHg 41%
11:00 +23°C° 0 mm 6 m/S 752 mmHg 39%
12:00 +23°C° 0 mm 6 m/S 752 mmHg 38%
13:00 +24°C° 0 mm 6 m/S 752 mmHg 37%
14:00 +25°C° 0 mm 5 m/S 752 mmHg 38%
15:00 +25°C° 0 mm 5 m/S 752 mmHg 39%
16:00 +25°C° 0 mm 5 m/S 751 mmHg 40%
17:00 +22°C° 0 mm 4 m/S 751 mmHg 48%
18:00 +21°C° 0 mm 3 m/S 752 mmHg 55%
19:00 +20°C° 0 mm 2 m/S 752 mmHg 63%
20:00 +18°C° 0 mm 2 m/S 752 mmHg 68%
21:00 +18°C° 0 mm 1 m/S 752 mmHg 74%
22:00 +15°C° 0 mm 1 m/S 752 mmHg 79%
23:00 +15°C° 0 mm 1 m/S 752 mmHg 80%

13 Juli, Montag

Zeit Temperatur Niederschläge Wind Luftdruck Luftfeuchtigkeit
00:00 +14°C° 0 mm 1 m/S 752 mmHg 81%
01:00 +14°C° 0 mm 1 m/S 752 mmHg 82%
02:00 +13°C° 0 mm 1 m/S 752 mmHg 84%
03:00 +13°C° 0 mm 1 m/S 752 mmHg 86%
04:00 +12°C° 0 mm 1 m/S 752 mmHg 87%
05:00 +14°C° 0 mm 1 m/S 752 mmHg 81%
06:00 +16°C° 0 mm 1 m/S 752 mmHg 74%
07:00 +19°C° 0 mm 1 m/S 752 mmHg 67%
08:00 +21°C° 0 mm 1 m/S 752 mmHg 61%
09:00 +22°C° 0 mm 1 m/S 752 mmHg 55%
10:00 +24°C° 0 mm 1 m/S 752 mmHg 50%
11:00 +25°C° 0 mm 1 m/S 752 mmHg 46%
12:00 +25°C° 0 mm 2 m/S 751 mmHg 43%
13:00 +26°C° 0 mm 2 m/S 751 mmHg 39%
14:00 +26°C° 0 mm 2 m/S 750 mmHg 39%
15:00 +26°C° 0 mm 3 m/S 750 mmHg 40%
16:00 +25°C° 0 mm 3 m/S 749 mmHg 40%
17:00 +24°C° 0 mm 3 m/S 749 mmHg 45%
18:00 +23°C° 0 mm 2 m/S 749 mmHg 51%
19:00 +20°C° 0 mm 2 m/S 749 mmHg 57%
20:00 +19°C° 0 mm 2 m/S 749 mmHg 60%
21:00 +17°C° 0 mm 2 m/S 749 mmHg 63%
22:00 +16°C° 0 mm 1 m/S 749 mmHg 66%
23:00 +15°C° 0 mm 1 m/S 749 mmHg 69%

14 Juli, Dienstag

Zeit Temperatur Niederschläge Wind Luftdruck Luftfeuchtigkeit
00:00 +14°C° 0 mm 1 m/S 749 mmHg 73%
01:00 +13°C° 0 mm 1 m/S 749 mmHg 77%
02:00 +13°C° 0 mm 1 m/S 749 mmHg 78%
03:00 +12°C° 0 mm 0 m/S 749 mmHg 80%
04:00 +11°C° 0 mm 0 m/S 749 mmHg 82%
05:00 +13°C° 0 mm 0 m/S 749 mmHg 76%
06:00 +15°C° 0 mm 0 m/S 749 mmHg 69%
07:00 +18°C° 0 mm 0 m/S 749 mmHg 62%
08:00 +21°C° 0 mm 1 m/S 749 mmHg 57%
09:00 +23°C° 0 mm 1 m/S 749 mmHg 51%
10:00 +25°C° 0 mm 1 m/S 749 mmHg 45%
11:00 +25°C° 0 mm 1 m/S 749 mmHg 44%
12:00 +26°C° 0 mm 2 m/S 748 mmHg 42%
13:00 +26°C° 0 mm 2 m/S 748 mmHg 41%
14:00 +26°C° 0 mm 2 m/S 747 mmHg 40%
15:00 +26°C° 0 mm 2 m/S 747 mmHg 39%
16:00 +27°C° 0 mm 3 m/S 747 mmHg 38%
17:00 +25°C° 0 mm 3 m/S 747 mmHg 45%
18:00 +24°C° 0 mm 3 m/S 747 mmHg 51%
19:00 +21°C° 0 mm 3 m/S 747 mmHg 57%
20:00 +20°C° 0 mm 3 m/S 747 mmHg 60%
21:00 +18°C° 0 mm 2 m/S 747 mmHg 64%
22:00 +17°C° 0 mm 2 m/S 747 mmHg 68%
23:00 +16°C° 0 mm 2 m/S 747 mmHg 70%

15 Juli, Mittwoch

Zeit Temperatur Niederschläge Wind Luftdruck Luftfeuchtigkeit
00:00 +16°C° 0 mm 2 m/S 747 mmHg 72%
01:00 +15°C° 0 mm 1 m/S 747 mmHg 73%
02:00 +15°C° 0 mm 1 m/S 747 mmHg 74%
03:00 +15°C° 0 mm 1 m/S 747 mmHg 75%
04:00 +15°C° 0 mm 1 m/S 746 mmHg 75%
05:00 +16°C° 0 mm 1 m/S 747 mmHg 70%
06:00 +19°C° 0 mm 1 m/S 747 mmHg 66%
07:00 +20°C° 0 mm 2 m/S 747 mmHg 61%
08:00 +21°C° 0 mm 2 m/S 747 mmHg 55%
09:00 +24°C° 0 mm 2 m/S 747 mmHg 50%
10:00 +25°C° 0 mm 2 m/S 747 mmHg 45%
11:00 +26°C° 0 mm 2 m/S 747 mmHg 42%
12:00 +27°C° 0 mm 2 m/S 747 mmHg 39%
13:00 +28°C° 0 mm 2 m/S 747 mmHg 36%
14:00 +28°C° 0 mm 2 m/S 746 mmHg 35%
15:00 +28°C° 0 mm 2 m/S 746 mmHg 34%
16:00 +29°C° 0 mm 2 m/S 746 mmHg 33%
17:00 +27°C° 0 mm 2 m/S 746 mmHg 40%
18:00 +25°C° 0 mm 2 m/S 746 mmHg 47%
19:00 +23°C° 0 mm 2 m/S 745 mmHg 54%
20:00 +21°C° 0 mm 2 m/S 746 mmHg 58%
21:00 +20°C° 0 mm 2 m/S 746 mmHg 61%
22:00 +19°C° 0 mm 1 m/S 746 mmHg 65%
23:00 +19°C° 0 mm 1 m/S 746 mmHg 66%
Mehr zeigen